Location: Peebles
(55.6412°N, 3.1714°W)
Time: 14:19:36
(UTC+01:00)

SL-8 Rocket - Pass Details

Date: 26 September 2021
Orbit: 958 x 990 km, 82.9° (Epoch: 17 October)

Event Time Altitude Azimuth Distance (km) Brightness Sun altitude
Rises 20:39:37 0° 172° (S) 3,678 6.8 -14.6°
Reaches altitude 10° 20:42:10 10° 168° (SSE) 2,738 6.0 -14.9°
Maximum altitude 20:48:16 56° 93° (E) 1,169 4.1 -15.7°
Drops below altitude 10° 20:54:26 10° 17° (NNE) 2,765 6.4 -16.5°
Sets 20:57:01 0° 13° (NNE) 3,719 7.2 -16.9°
